Hourly Data Report for June 16, 2003

All times are specified in Local Standard Time (LST). Add 1 hour to adjust for Daylight Saving Time where and when it is observed.

TORONTO CITY
ONTARIO

43°40'00.000" N
79°24'00.000" W
112.50 m
6158355
71508
XTO

Download Data

Hourly Data (June 2003)
Hourly Data Report for June 16, 2003
TIME Temp Definition
°C
Dew Point Definition
°C
Rel Hum Definition
%
Wind Dir Definition
10's deg

Wind Spd Definition
km/h
Visibility Definition
km
Stn Press Definition
kPa
Hmdx Definition


Wind Chill Definition


Weather Definition


00:00 16.1 8.1 59 LegendMM LegendMM LegendMM 100.70     LegendNANA
01:00 15.5 10.1 70 LegendMM LegendMM LegendMM 100.74     LegendNANA
02:00 13.8 8.4 70 LegendMM LegendMM LegendMM 100.77     LegendNANA
03:00 14.7 6.3 57 LegendMM LegendMM LegendMM 100.77     LegendNANA
04:00 14.0 6.6 61 LegendMM LegendMM LegendMM 100.81     LegendNANA
05:00 13.3 6.4 63 LegendMM LegendMM LegendMM 100.88     LegendNANA
06:00 14.2 7.5 64 LegendMM LegendMM LegendMM 100.94     LegendNANA
07:00 15.7 9.6 67 LegendMM LegendMM LegendMM 101.00     LegendNANA
08:00 17.1 10.3 64 LegendMM LegendMM LegendMM 101.05     LegendNANA
09:00 17.8 10.9 64 LegendMM LegendMM LegendMM 101.04     LegendNANA
10:00 18.9 12.0 64 LegendMM LegendMM LegendMM 101.04     LegendNANA
11:00 19.0 10.8 59 LegendMM LegendMM LegendMM 101.02     LegendNANA
12:00 19.3 11.6 61 LegendMM LegendMM LegendMM 101.02     LegendNANA
13:00 20.0 11.5 58 LegendMM LegendMM LegendMM 101.01     LegendNANA
14:00 19.5 11.3 59 LegendMM LegendMM LegendMM 100.98     LegendNANA
15:00 20.4 10.2 52 LegendMM LegendMM LegendMM 100.93     LegendNANA
16:00 20.7 9.9 50 LegendMM LegendMM LegendMM 100.89     LegendNANA
17:00 19.6 8.6 49 LegendMM LegendMM LegendMM 100.89     LegendNANA
18:00 19.7 8.1 47 LegendMM LegendMM LegendMM 100.84     LegendNANA
19:00 19.0 8.1 49 LegendMM LegendMM LegendMM 100.82     LegendNANA
20:00 17.2 8.6 57 LegendMM LegendMM LegendMM 100.80     LegendNANA
21:00 16.4 8.4 59 LegendMM LegendMM LegendMM 100.83     LegendNANA
22:00 16.2 8.2 59 LegendMM LegendMM LegendMM 100.83     LegendNANA
23:00 16.0 8.3 60 LegendMM LegendMM LegendMM 100.82     LegendNANA

Notes on Data Quality.

Legend

  • E = Estimated
  • M = Missing
  • NA = Not Available
Date modified: